ATLAS AGENA B DEB, 3132

Orbit data source: Space-Track

ATLAS AGENA B DEB, 3132 is space debris in LEO originally from a launch on Fri, 19 Jul 1963 UTC launched from the Air Force Western Test Range (AFWTR). Debris objects in space refer to the collection of defunct objects orbiting the Earth. Examples of debris include non-operational satellites, rocket bodies, and fragments generated from explosions, collisions, or faulty payload assembly.

Loading next visibility...
Identifier
3132, 1963-030G
Orbit
LEO
Country
Flag of USUS
Related business
Manufacturer
Unknown
Mission
Spacecraft
Bus & Motor
Unknown
Mass
Unknown
Launch date (UTC)
1963-07-19 (62 years ago)
Launch vehicle
Unknown
Launch site
Air Force Western Test Range (AFWTR)
Object type
Payload
Rocket body
Debris
Shape & HBR
Unknown
Radar Cross Section
Medium (>0.1 m² and <1 m²)

Expand to show TLE details & history
Last TLE update: 3 weeks ago

TLE from 3 weeks ago
0 ATLAS AGENA B DEB
1 03132U 63030G   25236.50312307 -.00000017  00000-0 -95470-2 0  9997
2 03132  88.4169 228.0701 0097029 353.7755   6.1886  8.57861262434420
Epoch: 2025-08-24T12:04Z
TLE epoch observation values (Epoch: 2025-08-24T12:04:29.833Z)
Latitude
Longitude
73.92319°
Altitude
3,606.731 km
Speed
6.349 km/s
True Right ascension
15h 12m 16s
True Declination
0° 00' 00"
Sunlit
Object was in daylight at epoch
Visualization orbit readout
Latitude
Unknown
Longitude
Unknown
Altitude
Unknown
Speed
Unknown
Apparent Right ascension
Unknown
Apparent Declination
Unknown
Sunlit
N/A
Visualization observer readout
Local Sidereal Time
23:01:54
Azimuth
Unknown
Elevation
Unknown
Doppler factor
Unknown
Orbital elements
Apogee altitude
3,797.394 km
Perigee altitude
3,601.827 km
Semi-major axis
10,077.748 km
Eccentricity
0.0097
Inclination
88.4169°
RAAN
228.0701°
Arg. of periapsis
353.7755°
True anomaly
6.30992°
Mean anomaly
6.1886°
Eccentric anomaly
6.24911°
Mean motion
2.14535 °/min
Orbital period
167.8 mins
BSTAR
-0.009547
Loading maneuver chart data...
Computing Atmospheric mass density...
Loading historical data...
Loading historical data...
Loading historical data...
Loading historical data...
Loading historical data...
Loading historical data...
Loading historical data...

Documentation

Showing up to 5 results
|